User: anonymous   Login
Location: Unspecified
(0.0000°N, 0.0000°E)
Time: 07:14:53
(UTC+00:00)
Language:

AGILE - Orbit

View from above orbital plane
View from above orbital plane
View from above satellite
View from above satellite

Ground track
Ground track

The orbit data is extracted from the following two-line orbital elements,

1 31135U 07013A   16180.37525899  .00002506  00000-0  49408-4 0  9990
2 31135   2.4688 341.1094 0013650 259.5135 100.3381 15.28230277509467
Epoch (UTC): 28 June 2016 09:00:22
Eccentricity: 0.0013650
inclination: 2.4688°
perigee height: 472 km
apogee height: 490 km
right ascension of ascending node: 341.1094°
argument of perigee: 259.5135°
revolutions per day: 15.28230277
mean anomaly at epoch: 100.3381°
orbit number at epoch: 50946

The dashed part of the orbit path shows where the satellite is in the earth's shadow,  

DLR